Retour au catalogue

STARLINK-4033

ActifCommunicationsVLEO
NORAD 52702·PAYLOAD·🇺🇸 United States

Lancé May 18, 2022 depuis Cape Canaveral Space Force Station

Loading…

Prochains Passages (prochaines 24 heures)

TLE

FraisSource: CelesTrak SupGP

Époque: Sep 15, 2026, 01:36 UTC

1 52702C 22053AY  26258.06715278 -.00027052  00000+0 -79942-3 0  2586
2 52702  53.1605  13.1297 0001103  94.0428 286.0770 15.34398338    11

Suivez STARLINK-4033 en temps réel avec AllMySat

Download on the App Store